Вернуться в каталог

PUJIANG 2

PJ-2

АктивенНаукаSSO
NORAD 52151·PAYLOAD·🇨🇳 China

Запущен Mar 29, 2022 с Taiyuan Satellite Launch Center

Loading…

Ближайшие Пролёты (ближайшие 24 часа)

TLE

СвежийSource: Space-Track

Эпоха: Sep 14, 2026, 15:09 UTC

1 52151U 22031B   26257.63158373 -.00000320  00000-0 -24212-4 0  9992
2 52151  97.8623  83.2852 0010244 267.0721  92.9327 14.94396370243158

Отслеживайте PUJIANG 2 в реальном времени с AllMySat

Download on the App Store